FW2527 Weather Reports


time (UTC)temp
C
wind
direction
speed
KPH
gust
KPH
rain 1hr
cm
rain 24hr
cm
rain mn
cm
humidity
%
barometer
mb
20260502200022 18 0.0 0.0 0.00 0.00 0.00 74 1015.6
20260502195509 19 0.0 0.0 0.00 0.00 0.00 72 1015.8
20260502195059 19 0.0 0.0 0.00 0.00 0.00 71 1015.8
20260502194518 19 0.0 0.0 0.00 0.00 0.00 69 1015.8
20260502194007 20 0.0 0.0 0.00 0.00 0.00 68 1016.0
20260502193556 20 0.0 0.0 0.00 0.00 0.00 67 1016.0
20260502193024 20 0.0 0.0 0.00 0.00 0.00 67 1015.6
20260502192515 20 0.0 0.0 0.00 0.00 0.00 67 1015.6
20260502192100 20 0.0 0.0 0.00 0.00 0.00 66 1015.6
20260502191518 21 0.0 0.0 0.00 0.00 0.00 66 1015.4
20260502191005 21 0.0 0.0 0.00 0.00 0.00 65 1015.4
20260502190559 21 0.0 0.0 0.00 0.00 0.00 65 1015.4
20260502190013 21 0.0 0.0 0.00 0.00 0.00 64 1015.1
20260502185603 21 0.0 0.0 0.00 0.00 0.00 64 1015.1
20260502185049 21 0.0 0.0 0.00 0.00 0.00 63 1015.0
20260502184517 21 0.0 0.0 0.00 0.00 0.00 62 1015.0
20260502184005 21 0.0 0.0 0.00 0.00 0.00 62 1015.0
20260502183556 21 0.0 0.0 0.00 0.00 0.00 62 1014.9
20260502183015 22 0.0 0.0 0.00 0.00 0.00 61 1014.9
20260502182500 22 0.0 0.0 0.00 0.00 0.00 60 1014.9
20260502182050 22 0.0 0.0 0.00 0.00 0.00 60 1014.9
20260502181509 22 0.0 0.0 0.00 0.00 0.00 59 1014.8
20260502181059 22 0.0 0.0 0.00 0.00 0.00 58 1014.9
20260502180549 22 0.0 0.0 0.00 0.00 0.00 58 1014.9
20260502164001 25 0.0 0.0 0.00 0.00 0.00 51 1015.3
20260502163551 25 0.0 0.0 0.00 0.00 0.00 53 1015.5
20260502163015 25 0.0 0.0 0.00 0.00 0.00 54 1015.5
20260502162600 25 0.0 0.0 0.00 0.00 0.00 57 1015.7
20260502162046 25 0.0 0.0 0.00 0.00 0.00 53 1015.7
20260502161507 25 0.0 0.0 0.00 0.00 0.00 53 1015.7
20260502161056 25 0.0 0.0 0.00 0.00 0.00 52 1015.7
20260502160545 25 0.0 0.0 0.00 0.00 0.00 55 1015.8
20260502152041 23 0.0 0.0 0.00 0.00 0.00 55 1016.3
20260502151527 23 0.0 0.0 0.00 0.00 0.00 54 1016.3
20260502151058 23 0.0 0.0 0.00 0.00 0.00 54 1016.4
20260502150546 23 0.0 0.0 0.00 0.00 0.00 56 1016.4
20260502130523 23 0.0 0.0 0.00 0.00 0.00 51 1017.1
20260502123512 24 0.0 0.0 0.00 0.00 0.00 49 1017.5
20260502123044 24 0.0 0.0 0.00 0.00 0.00 51 1017.4
20260502122530 23 0.0 0.0 0.00 0.00 0.00 50 1017.6
20260502122018 23 0.0 0.0 0.00 0.00 0.00 51 1017.6
20260502121541 23 0.0 0.0 0.00 0.00 0.00 50 1017.6
20260502121026 24 0.0 0.0 0.00 0.00 0.00 50 1017.8
20260502120515 24 0.0 0.0 0.00 0.00 0.00 50 1017.7
20260502115524 24 0.0 0.0 0.00 0.00 0.00 50 1017.8
20260502115016 23 0.0 0.0 0.00 0.00 0.00 50 1017.9
20260502114538 23 0.0 0.0 0.00 0.00 0.00 51 1017.9
20260502114028 23 0.0 0.0 0.00 0.00 0.00 51 1018.0
20260502113620 23 0.0 0.0 0.00 0.00 0.00 50 1018.0
20260502113100 23 0.0 0.0 0.00 0.00 0.00 50 1018.2
20260502112549 23 0.0 0.0 0.00 0.00 0.00 51 1018.2
20260502112041 23 0.0 0.0 0.00 0.00 0.00 52 1018.1
20260502111601 23 0.0 0.0 0.00 0.00 0.00 51 1018.2
20260502111049 22 0.0 0.0 0.00 0.00 0.00 51 1018.2
20260502110538 22 0.0 0.0 0.00 0.00 0.00 51 1018.2
20260502110103 23 0.0 0.0 0.00 0.00 0.00 51 1018.2
20260502105549 23 0.0 0.0 0.00 0.00 0.00 52 1018.3
20260502105042 22 0.0 0.0 0.00 0.00 0.00 52 1018.3
20260502104508 22 0.0 0.0 0.00 0.00 0.00 50 1018.2
20260502104058 22 0.0 0.0 0.00 0.00 0.00 49 1018.3
20260502103546 22 0.0 0.0 0.00 0.00 0.00 50 1018.4
20260502103005 21 0.0 0.0 0.00 0.00 0.00 50 1018.3
20260502102555 21 0.0 0.0 0.00 0.00 0.00 50 1018.5
20260502102042 21 0.0 0.0 0.00 0.00 0.00 51 1018.6
20260502101501 20 0.0 0.0 0.00 0.00 0.00 51 1018.7
20260502101050 20 0.0 0.0 0.00 0.00 0.00 50 1018.6
20260502100538 20 0.0 0.0 0.00 0.00 0.00 50 1018.7
20260502100105 20 0.0 0.0 0.00 0.00 0.00 51 1018.8
20260502091024 20 0.0 0.0 0.00 0.00 0.00 48 1018.9
20260502090516 20 0.0 0.0 0.00 0.00 0.00 47 1019.0
20260502071530 16 0.0 0.0 0.00 0.00 0.00 57 1019.2
20260502071017 17 0.0 0.0 0.00 0.00 0.00 56 1019.2
20260502070509 17 0.0 0.0 0.00 0.00 0.00 57 1019.1
20260502070039 16 0.0 0.0 0.00 0.00 0.00 59 1019.0
20260502065515 16 0.0 0.0 0.00 0.00 0.00 59 1019.1
20260502065002 16 0.0 0.0 0.00 0.00 0.00 60 1019.0
20260502064523 15 0.0 0.0 0.00 0.00 0.00 61 1019.0
20260502064010 15 0.0 0.0 0.00 0.00 0.00 61 1019.1
20260502063600 15 0.0 0.0 0.00 0.00 0.00 61 1019.1
20260502063033 15 0.0 0.0 0.00 0.00 0.00 62 1019.0
20260502062506 15 0.0 0.0 0.00 0.00 0.00 63 1019.0
20260502062055 15 0.0 0.0 0.00 0.00 0.00 62 1018.9
20260502061523 15 0.0 0.0 0.00 0.00 0.00 65 1018.9
20260502061015 14 0.0 0.0 0.00 0.00 0.00 65 1018.9
20260502060600 14 0.0 0.0 0.00 0.00 0.00 65 1018.9
20260502060028 13 0.0 0.0 0.00 0.00 0.00 65 1019.0
20260502055516 13 0.0 0.0 0.00 0.00 0.00 65 1019.1
20260502055004 13 0.0 0.0 0.00 0.00 0.00 65 1019.1
20260502054533 13 0.0 0.0 0.00 0.00 0.00 65 1019.1
20260502054012 13 0.0 0.0 0.00 0.00 0.00 65 1019.0
20260502053602 13 0.0 0.0 0.00 0.00 0.00 65 1019.0
20260502053030 12 0.0 0.0 0.00 0.00 0.00 66 1018.9
20260502052518 12 0.0 0.0 0.00 0.00 0.00 67 1019.0
20260502052006 12 0.0 0.0 0.00 0.00 0.00 68 1019.0
20260502051533 11 0.0 0.0 0.00 0.00 0.00 69 1019.0
20260502051027 11 0.0 0.0 0.00 0.00 0.00 71 1019.0
20260502050515 11 0.0 0.0 0.00 0.00 0.00 72 1019.1
20260502050037 10 0.0 0.0 0.00 0.00 0.00 72 1019.1
20260502045516 10 0.0 0.0 0.00 0.00 0.00 72 1019.2
20260502045002 10 0.0 0.0 0.00 0.00 0.00 72 1019.1
20260502044524 10 0.0 0.0 0.00 0.00 0.00 73 1019.2
20260502044012 10 0.0 0.0 0.00 0.00 0.00 73 1019.2
20260502043602 10 0.0 0.0 0.00 0.00 0.00 74 1019.4
20260502043022 9 0.0 0.0 0.00 0.00 0.00 74 1019.2
20260502042509 9 0.0 0.0 0.00 0.00 0.00 75 1019.2
20260502042059 8 0.0 0.0 0.00 0.00 0.00 74 1019.1
20260502041524 8 0.0 0.0 0.00 0.00 0.00 73 1019.1
20260502041005 9 0.0 0.0 0.00 0.00 0.00 73 1018.9
20260502040555 9 0.0 0.0 0.00 0.00 0.00 73 1019.0
20260502040022 9 0.0 0.0 0.00 0.00 0.00 73 1019.2
20260502035509 9 0.0 0.0 0.00 0.00 0.00 72 1019.2
20260502035100 10 0.0 0.0 0.00 0.00 0.00 72 1019.2
20260502034522 9 0.0 0.0 0.00 0.00 0.00 72 1019.1
20260502034005 9 0.0 0.0 0.00 0.00 0.00 73 1019.1
20260502033555 9 0.0 0.0 0.00 0.00 0.00 73 1019.1
20260502033013 9 0.0 0.0 0.00 0.00 0.00 73 1019.2
20260502032501 9 0.0 0.0 0.00 0.00 0.00 73 1019.2
20260502032055 9 0.0 0.0 0.00 0.00 0.00 73 1019.3
20260502031519 9 0.0 0.0 0.00 0.00 0.00 73 1019.4
20260502031007 9 0.0 0.0 0.00 0.00 0.00 73 1019.4
20260502030556 9 0.0 0.0 0.00 0.00 0.00 73 1019.5
20260502030015 9 0.0 0.0 0.00 0.00 0.00 73 1019.6
20260502025502 9 0.0 0.0 0.00 0.00 0.00 73 1019.6
20260502025055 9 0.0 0.0 0.00 0.00 0.00 73 1019.6
20260502024515 9 0.0 0.0 0.00 0.00 0.00 73 1019.7
20260502024103 9 0.0 0.0 0.00 0.00 0.00 73 1019.7
20260502023549 9 0.0 0.0 0.00 0.00 0.00 72 1019.8
20260502023017 9 0.0 0.0 0.00 0.00 0.00 72 1019.7
20260502022504 9 0.0 0.0 0.00 0.00 0.00 72 1019.8
20260502022054 9 0.0 0.0 0.00 0.00 0.00 72 1019.7
20260502021510 9 0.0 0.0 0.00 0.00 0.00 72 1019.8
20260502021104 9 0.0 0.0 0.00 0.00 0.00 72 1019.9
20260502020548 9 0.0 0.0 0.00 0.00 0.00 72 1019.8
20260502020007 9 0.0 0.0 0.00 0.00 0.00 72 1019.9
20260502015557 9 0.0 0.0 0.00 0.00 0.00 71 1020.0
20260502015042 9 0.0 0.0 0.00 0.00 0.00 71 1020.0
20260502014602 9 0.0 0.0 0.00 0.00 0.00 71 1020.0
20260502014050 9 0.0 0.0 0.00 0.00 0.00 71 1020.0
20260502013538 9 0.0 0.0 0.00 0.00 0.00 71 1020.0
20260502013107 9 0.0 0.0 0.00 0.00 0.00 71 1020.1
20260502012547 9 0.0 0.0 0.00 0.00 0.00 71 1020.1
20260502012035 9 0.0 0.0 0.00 0.00 0.00 71 1020.1
20260502011559 9 0.0 0.0 0.00 0.00 0.00 70 1020.2
20260502011043 9 0.0 0.0 0.00 0.00 0.00 70 1020.3
20260502010530 9 0.0 0.0 0.00 0.00 0.00 70 1020.4
20260502010051 9 0.0 0.0 0.00 0.00 0.00 70 1020.3
20260502005538 10 0.0 0.0 0.00 0.00 0.00 70 1020.4
20260502005027 10 0.0 0.0 0.00 0.00 0.00 69 1020.4
20260502004547 10 0.0 0.0 0.00 0.00 0.00 70 1020.5
20260502004036 10 0.0 0.0 0.00 0.00 0.00 69 1020.5
20260502003521 10 0.0 0.0 0.00 0.00 0.00 69 1020.6
20260502003042 10 0.0 0.0 0.00 0.00 0.00 69 1020.6
20260502002529 10 0.0 0.0 0.00 0.00 0.00 69 1020.7
20260502002021 10 0.0 0.0 0.00 0.00 0.00 69 1020.8
20260502001538 10 0.0 0.0 0.00 0.00 0.00 69 1020.8
20260502001026 10 0.0 0.0 0.00 0.00 0.00 69 1020.7
20260502000513 10 0.0 0.0 0.00 0.00 0.00 69 1020.7
20260502000057 10 0.0 0.0 0.00 0.00 0.00 69 1020.8
20260501235521 10 0.0 0.0 0.00 0.00 0.00 69 1020.8
20260501235007 10 0.0 0.0 0.00 0.00 0.00 68 1020.9
20260501234539 10 0.0 0.0 0.00 0.00 0.00 68 1021.0
20260501234028 10 0.0 0.0 0.00 0.00 0.00 68 1020.9
20260501233511 10 0.0 0.0 0.00 0.00 0.00 68 1020.9
20260501233032 10 0.0 0.0 0.00 0.00 0.00 67 1021.0
20260501232519 10 0.0 0.0 0.00 0.00 0.00 67 1021.0
20260501232010 10 0.0 0.0 0.00 0.00 0.00 67 1021.0
20260501231530 10 0.0 0.0 0.00 0.00 0.00 67 1021.0
20260501231016 11 0.0 0.0 0.00 0.00 0.00 67 1020.9
20260501230503 11 0.0 0.0 0.00 0.00 0.00 67 1021.0
20260501230034 11 0.0 0.0 0.00 0.00 0.00 66 1021.1
20260501225520 11 0.0 0.0 0.00 0.00 0.00 66 1021.0
20260501225007 11 0.0 0.0 0.00 0.00 0.00 66 1020.9
20260501224558 11 0.0 0.0 0.00 0.00 0.00 66 1021.1
20260501224023 11 0.0 0.0 0.00 0.00 0.00 66 1021.1
20260501223510 11 0.0 0.0 0.00 0.00 0.00 66 1021.1
20260501223029 11 0.0 0.0 0.00 0.00 0.00 66 1021.0
20260501222516 11 0.0 0.0 0.00 0.00 0.00 66 1021.1
20260501222004 11 0.0 0.0 0.00 0.00 0.00 65 1021.1
20260501221522 11 0.0 0.0 0.00 0.00 0.00 66 1021.1
20260501221011 11 0.0 0.0 0.00 0.00 0.00 65 1021.2
20260501220559 11 0.0 0.0 0.00 0.00 0.00 65 1021.2
20260501220024 12 0.0 0.0 0.00 0.00 0.00 65 1021.2
20260501215504 12 0.0 0.0 0.00 0.00 0.00 65 1021.2
20260501215054 12 0.0 0.0 0.00 0.00 0.00 65 1021.2
20260501214521 12 0.0 0.0 0.00 0.00 0.00 64 1021.2
20260501214010 12 0.0 0.0 0.00 0.00 0.00 64 1021.2
20260501213557 12 0.0 0.0 0.00 0.00 0.00 63 1021.2
20260501213016 12 0.0 0.0 0.00 0.00 0.00 62 1021.2
20260501212503 12 0.0 0.0 0.00 0.00 0.00 62 1021.2
20260501212053 12 0.0 0.0 0.00 0.00 0.00 61 1021.2
20260501211518 13 0.0 0.0 0.00 0.00 0.00 61 1021.3
20260501211100 13 0.0 0.0 0.00 0.00 0.00 61 1021.2
20260501210548 13 0.0 0.0 0.00 0.00 0.00 60 1021.4
20260501210016 13 0.0 0.0 0.00 0.00 0.00 59 1021.3
20260501205504 13 0.0 0.0 0.00 0.00 0.00 59 1021.4
20260501205054 13 0.0 0.0 0.00 0.00 0.00 58 1021.4
20260501204512 14 0.0 0.0 0.00 0.00 0.00 58 1021.5
20260501204103 14 0.0 0.0 0.00 0.00 0.00 57 1021.4
20260501203549 14 0.0 0.0 0.00 0.00 0.00 56 1021.5
20260501203007 15 0.0 0.0 0.00 0.00 0.00 56 1021.5
20260501202557 15 0.0 0.0 0.00 0.00 0.00 55 1021.5
20260501202043 15 0.0 0.0 0.00 0.00 0.00 54 1021.5
20260501201515 15 0.0 0.0 0.00 0.00 0.00 53 1021.5
20260501201101 15 0.0 0.0 0.00 0.00 0.00 53 1021.5
20260501200548 16 0.0 0.0 0.00 0.00 0.00 51 1021.5